Vorticity
6 5 9 19 14 14 20 19 15 13 11 10 14 12 9 5 8 5 5 6 7 7 6 7 9 8 5 8 6 7 9 3 -7 -0 -3 -9 12 5 8 7 10 8 5
15 23 22 16 37 33 39 20 18 12 16 20 6 7 6 8 8 7 5 6 6 8 10 8 6 7 8 7 9 5 5 8 6 8 5 -1 2 -0 -17 61 10 3 6
25 21 23 28 20 1 6 13 8 15 18 24 27 15 6 4 9 8 10 12 12 10 8 9 8 7 8 7 7 9 8 6 4 4 4 4 7 3 4 -16 103 7 7
17 19 25 27 11 28 10 10 8 4 2 13 12 10 16 4 7 9 9 10 12 9 9 9 8 7 8 7 6 6 4 4 4 6 4 3 5 6 1 -19 8 39 17
2 23 34 20 36 -9 15 -8 14 -10 16 -1 4 11 16 19 12 10 10 11 11 10 9 9 8 10 7 7 6 6 5 4 3 4 2 3 4 8 6 6 -1 71 26
13 23 14 9 10 28 27 22 -1 -12 9 21 17 34 19 31 15 7 11 11 10 11 11 10 10 6 4 7 6 5 4 5 5 5 5 4 4 3 2 -0 4 -1 -13
29 6 24 -5 -9 23 41 -7 18 19 6 9 -1 5 7 18 39 11 7 6 13 12 11 10 7 7 7 6 5 7 7 9 10 7 6 3 2 -0 4 5 9 17 11
-4 17 -3 18 33 23 18 0 -5 7 -16 8 8 11 6 27 43 11 4 4 14 12 11 10 11 7 3 3 8 9 9 5 4 8 3 4 14 15 23 24 17 23 27
17 23 81 -37 9 -18 17 7 8 9 1 19 3 22 22 25 24 12 10 14 18 12 5 8 4 8 7 11 13 11 4 3 5 5 14 27 24 7 16 19 11 12 29
38 20 -12 38 -8 4 -6 1 2 8 12 -1 -20 14 18 25 25 49 24 -2 2 4 10 12 11 9 11 9 9 6 6 6 12 19 22 9 12 17 15 2 28 26 8
5 26 41 20 47 49 14 11 19 12 37 6 -6 1 1 -2 -3 10 24 56 0 11 8 9 10 9 7 16 5 1 4 13 21 14 17 16 27 27 3 47 25 28 19
6 21 -6 24 5 18 11 -2 1 -1 4 -1 16 8 2 -3 -1 19 20 18 19 11 11 11 9 11 9 8 15 7 2 0 22 15 16 25 23 19 21 11 7 7 18
4 17 5 -8 6 11 8 -0 -10 5 1 5 6 2 -1 -8 1 12 25 18 17 13 12 10 6 14 10 -7 0 12 9 19 14 12 35 17 21 7 7 13 15 8 12
6 6 10 9 0 -2 26 -0 5 -2 1 5 6 2 3 -4 8 10 18 19 17 10 12 9 10 4 1 12 -0 9 12 24 11 12 30 17 12 3 10 13 23 24 -1
11 12 13 13 11 15 1 10 7 2 4 9 2 -1 -3 -2 14 12 16 13 14 17 12 11 15 3 5 5 6 9 36 14 13 12 19 10 -2 -6 16 3 11 14 3
11 11 15 18 15 15 17 12 8 2 -0 -0 5 4 18 19 10 18 14 10 16 21 18 17 9 3 14 2 3 34 20 13 13 26 7 21 8 -31 12 11 14 12 25
6 6 7 7 7 9 11 14 22 24 21 19 22 16 10 7 4 6 5 6 9 13 12 12 12 18 3 8 10 28 19 23 7 26 11 13 -14 30 28 -36 10 18 3
7 9 9 11 14 17 17 12 12 14 14 19 22 24 23 20 17 17 15 11 6 7 3 6 3 -0 7 8 9 24 20 -0 15 11 19 19 16 30 -1 8 11 12 24
19 26 23 24 28 23 25 34 41 42 44 47 37 33 31 25 27 28 27 29 33 31 30 27 30 22 11 22 31 30 19 18 6 17 11 31 -14 28 35 20 19 19 -3
3 28 10 11 21 22 32 23 17 19 14 4 7 21 18 9 15 19 7 4 15 14 19 25 19 18 19 13 16 22 11 2 3 24 13 10 13 9 27 15 32 -31 -12
16 10 7 17 6 12 18 20 7 14 19 20 22 5 4 11 14 19 24 11 25 19 25 33 46 43 39 36 40 33 24 13 7 1 13 12 15 14 12 -10 -6 4 -4
11 25 16 8 10 14 17 19 15 7 9 24 13 11 7 4 2 7 9 8 8 6 9 8 4 2 5 5 19 26 25 28 27 9 21 19 9 -20 27 16 -14 21 16
18 10 13 24 21 14 13 12 16 14 1 1 5 5 9 10 10 8 7 5 6 7 5 6 6 5 7 8 8 3 4 29 26 26 20 23 15 21 6 14 1 -5 7
-1 20 12 2 4 13 13 5 2 3 5 5 8 11 10 3 3 4 5 7 8 9 10 9 9 8 7 7 8 6 5 4 -0 17 40 17 28 19 19 28 2 6 2
13 3 2 14 16 -1 3 8 6 6 8 11 7 1 1 0 6 10 9 8 7 6 6 7 7 6 6 6 6 6 8 9 8 8 4 3 12 18 15 23 40 16 3
1 20 12 0 5 8 9 5 6 10 10 4 2 2 3 7 9 11 9 4 6 6 5 3 3 4 7 13 8 4 10 9 6 7 8 8 7 7 7 10 28 19 22
Height
5695 5693 5690 5687 5689 5691 5692 5693 5694 5697 5701 5706 5708 5709 5712 5716 5719 5720 5721 5723 5723 5725 5725 5726 5728 5730 5733 5735 5734 5735 5737 5733 5726 5736 5736 5732 5733 5735 5736 5735 5738 5742 5748
5675 5673 5669 5666 5668 5672 5675 5677 5678 5679 5683 5689 5693 5694 5696 5700 5705 5707 5709 5711 5712 5713 5715 5716 5716 5718 5721 5723 5726 5726 5728 5729 5731 5730 5730 5730 5730 5729 5731 5727 5720 5725 5732
5657 5657 5653 5650 5653 5657 5661 5663 5666 5668 5671 5674 5677 5679 5682 5684 5687 5693 5695 5698 5700 5701 5703 5705 5707 5708 5710 5711 5713 5715 5716 5717 5719 5720 5717 5718 5720 5721 5722 5720 5712 5711 5716
5642 5640 5637 5639 5645 5645 5647 5651 5656 5659 5660 5661 5663 5668 5669 5671 5674 5677 5682 5684 5686 5689 5692 5693 5696 5698 5699 5700 5702 5702 5703 5704 5705 5708 5708 5707 5708 5709 5710 5716 5712 5704 5709
5630 5627 5625 5627 5632 5634 5636 5640 5645 5650 5651 5653 5654 5656 5658 5659 5660 5665 5667 5670 5672 5675 5679 5682 5684 5686 5689 5690 5691 5691 5692 5693 5691 5692 5693 5694 5694 5696 5698 5700 5703 5700 5706
5622 5618 5617 5619 5623 5625 5628 5634 5637 5641 5644 5646 5645 5645 5647 5647 5647 5651 5656 5659 5661 5662 5665 5669 5673 5675 5676 5677 5679 5680 5680 5682 5681 5679 5678 5678 5681 5683 5686 5688 5691 5693 5694
5613 5611 5610 5613 5616 5617 5619 5626 5629 5631 5636 5637 5637 5637 5636 5637 5636 5637 5642 5646 5650 5652 5653 5656 5659 5661 5663 5664 5666 5666 5668 5669 5669 5669 5667 5666 5666 5668 5668 5670 5675 5678 5680
5603 5600 5601 5604 5608 5611 5613 5618 5620 5622 5624 5626 5627 5628 5626 5627 5627 5628 5630 5633 5637 5639 5641 5644 5646 5648 5649 5651 5652 5653 5655 5654 5655 5655 5654 5652 5651 5651 5651 5655 5656 5657 5660
5601 5601 5597 5598 5599 5605 5608 5611 5612 5614 5616 5618 5620 5619 5617 5615 5615 5616 5620 5622 5625 5627 5629 5632 5635 5636 5637 5638 5639 5640 5641 5641 5641 5640 5638 5635 5633 5634 5635 5636 5639 5640 5643
5602 5598 5598 5596 5595 5598 5600 5602 5602 5605 5608 5610 5611 5610 5607 5607 5607 5607 5609 5611 5614 5616 5618 5621 5622 5623 5625 5625 5626 5627 5626 5626 5626 5623 5619 5620 5619 5619 5620 5620 5621 5624 5630
5600 5597 5594 5590 5587 5588 5592 5593 5596 5599 5601 5600 5602 5602 5602 5602 5601 5601 5599 5599 5601 5604 5606 5608 5609 5611 5613 5613 5614 5615 5614 5612 5610 5606 5605 5603 5602 5604 5605 5604 5607 5612 5616
5593 5593 5593 5588 5583 5582 5586 5587 5588 5589 5590 5592 5593 5593 5593 5592 5592 5591 5590 5591 5592 5594 5595 5596 5597 5599 5601 5602 5602 5602 5599 5598 5595 5592 5589 5589 5587 5591 5593 5595 5598 5602 5606
5587 5586 5583 5579 5578 5579 5579 5581 5582 5581 5582 5583 5583 5583 5582 5581 5580 5580 5581 5581 5582 5582 5582 5584 5586 5588 5589 5590 5589 5588 5586 5584 5582 5578 5576 5578 5578 5580 5583 5586 5589 5592 5596
5579 5580 5577 5577 5577 5577 5576 5575 5573 5572 5573 5574 5574 5573 5572 5572 5571 5570 5569 5569 5570 5569 5570 5572 5574 5576 5577 5577 5576 5574 5572 5569 5568 5567 5566 5568 5568 5572 5575 5576 5579 5582 5586
5570 5569 5569 5570 5568 5565 5564 5564 5565 5565 5566 5567 5565 5564 5563 5564 5562 5559 5559 5557 5557 5559 5560 5560 5562 5564 5566 5565 5562 5560 5558 5557 5555 5554 5556 5557 5561 5564 5568 5568 5570 5573 5578
5558 5556 5556 5554 5554 5554 5553 5553 5553 5553 5554 5552 5552 5553 5554 5553 5550 5550 5548 5547 5548 5549 5549 5550 5551 5552 5554 5553 5551 5548 5545 5543 5542 5543 5544 5546 5550 5548 5551 5558 5561 5565 5570
5548 5546 5544 5542 5541 5540 5540 5541 5541 5540 5541 5540 5541 5542 5542 5541 5541 5540 5539 5538 5538 5539 5539 5539 5539 5541 5541 5540 5539 5536 5533 5530 5530 5532 5534 5537 5539 5539 5535 5545 5552 5557 5559
5542 5539 5535 5534 5532 5530 5528 5526 5527 5528 5529 5530 5530 5531 5531 5532 5531 5531 5529 5527 5526 5527 5527 5527 5528 5528 5528 5527 5527 5524 5522 5521 5521 5522 5524 5526 5527 5523 5534 5541 5546 5550 5553
5537 5535 5532 5529 5526 5524 5523 5521 5520 5520 5520 5521 5522 5523 5524 5523 5523 5522 5521 5520 5518 5518 5517 5516 5516 5515 5514 5515 5515 5513 5512 5511 5511 5513 5515 5517 5520 5524 5529 5529 5538 5541 5544
5533 5531 5528 5526 5524 5522 5520 5519 5518 5518 5518 5520 5520 5522 5522 5522 5521 5520 5518 5517 5515 5513 5511 5509 5506 5505 5504 5504 5503 5502 5501 5501 5502 5504 5505 5507 5510 5516 5519 5524 5527 5531 5533
5529 5527 5526 5524 5522 5521 5520 5519 5519 5519 5519 5519 5520 5520 5520 5520 5519 5518 5516 5514 5511 5510 5507 5505 5502 5500 5498 5496 5494 5492 5491 5492 5493 5494 5495 5497 5500 5504 5510 5513 5518 5521 5523
5524 5523 5523 5523 5521 5520 5519 5519 5519 5519 5519 5519 5519 5519 5519 5519 5518 5516 5514 5512 5510 5508 5505 5503 5499 5496 5493 5490 5487 5484 5483 5483 5484 5485 5487 5488 5490 5493 5496 5502 5505 5510 5513
5521 5521 5521 5521 5520 5519 5519 5520 5519 5519 5519 5520 5520 5520 5519 5518 5517 5515 5513 5511 5509 5507 5504 5501 5498 5495 5492 5490 5486 5483 5479 5477 5477 5477 5478 5479 5480 5483 5485 5489 5493 5497 5501
5520 5520 5520 5520 5520 5520 5520 5520 5520 5521 5521 5521 5521 5520 5519 5517 5516 5514 5511 5508 5505 5502 5500 5497 5495 5492 5489 5485 5482 5480 5478 5476 5474 5471 5470 5469 5469 5470 5473 5476 5480 5484 5486
5518 5519 5520 5520 5520 5521 5521 5522 5522 5522 5522 5522 5521 5519 5517 5515 5513 5510 5508 5505 5502 5499 5496 5493 5491 5489 5485 5482 5480 5477 5474 5471 5469 5468 5466 5463 5461 5461 5462 5462 5466 5469 5473
5518 5519 5519 5520 5521 5522 5522 5522 5521 5521 5521 5520 5518 5516 5515 5512 5509 5506 5503 5500 5497 5494 5491 5489 5485 5482 5479 5476 5473 5470 5467 5464 5462 5459 5457 5456 5454 5453 5452 5452 5453 5454 5455